Location: Cuzcurrita-R�o Tir�n
(42.5415°N, 2.9642°W)
Time: 00:53:03
(UTC+00:00)

NOSS 3-2 (C) - Pass Details

Date: 27 February 2020
Orbit: 813 x 1399 km, 63.4° (Epoch: 06 March)

Event Time Altitude Azimuth Distance (km) Brightness Sun altitude
Rises 20:51:42 0° 324° (NW) 3,985 7.4 -32.3°
Reaches altitude 10° 20:54:17 10° 326° (NNW) 3,101 6.7 -32.7°
Enters shadow 21:01:19 73° 15° (NNE) 1,335 4.0 -33.9°
